Weather History for Taos, NM

Change the Weather History Date:

Saturday, March 30, 2013

  Actual Average Record
Temperature  
Mean Temperature 44 °F -  
Max Temperature 64 °F 55 °F 71 °F (2012)
Min Temperature 24 °F 24 °F 15 °F (1997)
Degree Days  
Heating Degree Days 21    
Moisture  
Dew Point 19 °F    
Average Humidity 38    
Maximum Humidity 69    
Minimum Humidity 15    
Precipitation  
Precipitation 0.00 in - - ()
Sea Level Pressure  
Sea Level Pressure 30.20 in    
Wind  
Wind Speed 6 mph (NNW)    
Max Wind Speed 20 mph    
Max Gust Speed 25 mph    
Visibility 10 miles    
Events      
Averages and records for this station are not official NWS values.
T = Trace of Precipitation, MM = Missing Value Source: NWS Daily Summary

Daily Weather History Graph

Daily Weather History Graph

Search for Another Location

Airport:

Trip Planner

Search our weather history database for the weather conditions in past years. The results will help you decide how hot, cold, wet, or windy it might be!

Date:

Astronomy

Mar. 30, 2013 Rise Set
Actual Time 6:51 AM MDT 7:23 PM MDT
Civil Twilight 6:25 AM MDT 7:49 PM MDT
Nautical Twilight 5:54 AM MDT 8:19 PM MDT
Astronomical Twilight 5:23 AM MDT 8:51 PM MDT
Moon 11:25 PM MDT (3/30) 8:54 AM MDT (3/30)
Length of Visible Light 13h 24m
Length of Day
12h 32m
Waning Gibbous, 86% of the Moon is Illuminated
Mar 30
Waning Gibbous
Apr 2
Last Quarter
Apr 10
New
Apr 18
First Quarter
Apr 25
Full

Hourly Weather History & Observations

Time (MDT) Temp. Windchill Dew Point Humidity Pressure Visibility Wind Dir Wind Speed Gust Speed Precip Events Conditions
12:15 AM 33.8 °F 29.6 °F 17.6 °F 52% 30.26 in 10.0 mi North 4.6 mph - N/A   Clear
12:35 AM 35.6 °F 31.7 °F 19.4 °F 52% 30.26 in 10.0 mi NE 4.6 mph - N/A   Clear
12:55 AM 33.8 °F 27.0 °F 17.6 °F 52% 30.26 in 10.0 mi NNE 8.1 mph - N/A   Clear
1:15 AM 33.8 °F 29.6 °F 19.4 °F 56% 30.26 in 10.0 mi NNE 4.6 mph - N/A   Clear
1:35 AM 30.2 °F 25.4 °F 15.8 °F 55% 30.26 in 10.0 mi North 4.6 mph - N/A   Clear
1:55 AM 32.0 °F - 17.6 °F 55% 30.25 in 10.0 mi Calm Calm - N/A   Clear
2:15 AM 33.8 °F 29.6 °F 19.4 °F 56% 30.25 in 10.0 mi North 4.6 mph - N/A   Clear
2:35 AM 28.4 °F 23.3 °F 15.8 °F 59% 30.25 in 10.0 mi North 4.6 mph - N/A   Clear
2:55 AM 30.2 °F 25.4 °F 17.6 °F 60% 30.25 in 10.0 mi North 4.6 mph - N/A   Clear
3:15 AM 26.6 °F 21.2 °F 12.2 °F 55% 30.25 in 10.0 mi North 4.6 mph - N/A   Clear
3:35 AM 26.6 °F 21.2 °F 15.8 °F 64% 30.24 in 10.0 mi NNE 4.6 mph - N/A   Clear
3:55 AM 26.6 °F 19.1 °F 15.8 °F 64% 30.24 in 10.0 mi NW 6.9 mph - N/A   Clear
4:15 AM 24.8 °F 16.9 °F 12.2 °F 59% 30.24 in 10.0 mi North 6.9 mph - N/A   Clear
4:35 AM 24.8 °F 15.3 °F 15.8 °F 69% 30.24 in 10.0 mi NNE 9.2 mph - N/A   Clear
4:55 AM 26.6 °F 19.1 °F 17.6 °F 69% 30.24 in 10.0 mi ENE 6.9 mph - N/A   Clear
5:15 AM 28.4 °F 21.2 °F 15.8 °F 59% 30.24 in 10.0 mi North 6.9 mph - N/A   Clear
5:35 AM 26.6 °F 22.6 °F 15.8 °F 64% 30.24 in 10.0 mi NNW 3.5 mph - N/A   Clear
5:55 AM 26.6 °F - 17.6 °F 69% 30.24 in 10.0 mi Calm Calm - N/A   Clear
6:15 AM 26.6 °F - 14.0 °F 59% 30.25 in 10.0 mi Calm Calm - N/A   Clear
6:35 AM 28.4 °F 23.3 °F 17.6 °F 64% 30.25 in 10.0 mi North 4.6 mph - N/A   Clear
6:55 AM 24.8 °F 16.9 °F 15.8 °F 69% 30.26 in 10.0 mi NNE 6.9 mph - N/A   Clear
7:15 AM 26.6 °F 19.1 °F 15.8 °F 64% 30.27 in 10.0 mi NE 6.9 mph - N/A   Clear
7:35 AM 30.2 °F - 21.2 °F 69% 30.28 in 10.0 mi Calm Calm - N/A   Clear
7:55 AM 33.8 °F 30.8 °F 21.2 °F 60% 30.28 in 10.0 mi North 3.5 mph - N/A   Clear
8:15 AM 35.6 °F 32.8 °F 21.2 °F 56% 30.29 in 10.0 mi NNW 3.5 mph - N/A   Clear
8:35 AM 39.2 °F 37.0 °F 21.2 °F 49% 30.28 in 10.0 mi North 3.5 mph - N/A   Clear
8:55 AM 42.8 °F - 24.8 °F 49% 30.28 in 10.0 mi Calm Calm - N/A   Clear
9:15 AM 44.6 °F - 24.8 °F 46% 30.28 in 10.0 mi Calm Calm - N/A   Clear
9:35 AM 48.2 °F - 24.8 °F 40% 30.27 in 10.0 mi Calm Calm - N/A   Clear
9:55 AM 51.8 °F - 26.6 °F 38% 30.26 in 10.0 mi West 3.5 mph - N/A   Clear
10:15 AM 53.6 °F - 24.8 °F 33% 30.25 in 10.0 mi Calm Calm - N/A   Clear
10:35 AM 55.4 °F - 26.6 °F 33% 30.25 in 10.0 mi West 4.6 mph - N/A   Clear
10:55 AM 55.4 °F - 24.8 °F 31% 30.24 in 10.0 mi SW 5.8 mph - N/A   Clear
11:15 AM 57.2 °F - 24.8 °F 29% 30.23 in 10.0 mi SW 4.6 mph - N/A   Clear
11:35 AM 59.0 °F - 23.0 °F 25% 30.23 in 10.0 mi SSW 6.9 mph - N/A   Clear
11:55 AM 60.8 °F - 21.2 °F 22% 30.22 in 10.0 mi West 3.5 mph - N/A   Clear
12:15 PM 60.8 °F - 21.2 °F 22% 30.22 in 10.0 mi WSW 5.8 mph - N/A   Clear
12:35 PM 62.6 °F - 21.2 °F 20% 30.21 in 10.0 mi SSE 10.4 mph - N/A   Clear
12:55 PM 62.6 °F - 23.0 °F 22% 30.20 in 10.0 mi West 11.5 mph 16.1 mph N/A   Mostly Cloudy
1:15 PM 62.6 °F - 24.8 °F 24% 30.19 in 10.0 mi SW 6.9 mph 20.7 mph N/A   Scattered Clouds
1:35 PM 62.6 °F - 21.2 °F 20% 30.17 in 10.0 mi South 10.4 mph 16.1 mph N/A   Scattered Clouds
1:55 PM 62.6 °F - 21.2 °F 20% 30.16 in 10.0 mi West 5.8 mph - N/A   Scattered Clouds
2:15 PM 62.6 °F - 19.4 °F 19% 30.15 in 10.0 mi SE 3.5 mph - N/A   Scattered Clouds
2:35 PM 64.4 °F - 19.4 °F 18% 30.14 in 10.0 mi WNW 15.0 mph 25.3 mph N/A   Mostly Cloudy
2:55 PM 62.6 °F - 17.6 °F 18% 30.13 in 10.0 mi WNW 13.8 mph 17.3 mph N/A   Mostly Cloudy
3:15 PM 64.4 °F - 17.6 °F 16% 30.12 in 10.0 mi NNW 8.1 mph 16.1 mph N/A   Mostly Cloudy
3:35 PM 64.4 °F - 17.6 °F 16% 30.12 in 10.0 mi WNW 12.7 mph - N/A   Mostly Cloudy
3:55 PM 64.4 °F - 17.6 °F 16% 30.11 in 10.0 mi NW 10.4 mph 16.1 mph N/A   Mostly Cloudy
4:15 PM 64.4 °F - 17.6 °F 16% 30.10 in 10.0 mi NW 15.0 mph 20.7 mph N/A   Scattered Clouds
4:35 PM 64.4 °F - 17.6 °F 16% 30.10 in 10.0 mi West 13.8 mph 24.2 mph N/A   Scattered Clouds
4:55 PM 64.4 °F - 15.8 °F 15% 30.09 in 10.0 mi WNW 19.6 mph 23.0 mph N/A   Partly Cloudy
5:15 PM 62.6 °F - 15.8 °F 16% 30.09 in 10.0 mi NW 16.1 mph 23.0 mph N/A   Clear
5:35 PM 62.6 °F - 15.8 °F 16% 30.09 in 10.0 mi West 15.0 mph 23.0 mph N/A   Clear
5:55 PM 62.6 °F - 15.8 °F 16% 30.09 in 10.0 mi WNW 13.8 mph 21.9 mph N/A   Clear
6:15 PM 60.8 °F - 15.8 °F 17% 30.09 in 10.0 mi WNW 13.8 mph - N/A   Clear
6:35 PM 59.0 °F - 15.8 °F 19% 30.10 in 10.0 mi WNW 12.7 mph - N/A   Clear
6:55 PM 57.2 °F - 15.8 °F 20% 30.11 in 10.0 mi WNW 13.8 mph - N/A   Clear
7:15 PM 57.2 °F - 15.8 °F 20% 30.11 in 10.0 mi WNW 11.5 mph - N/A   Clear
7:35 PM 55.4 °F - 15.8 °F 21% 30.12 in 10.0 mi WNW 9.2 mph - N/A   Mostly Cloudy
7:55 PM 55.4 °F - 17.6 °F 23% 30.13 in 10.0 mi NW 11.5 mph - N/A   Overcast
8:15 PM 53.6 °F - 17.6 °F 24% 30.13 in 10.0 mi NW 8.1 mph - N/A   Scattered Clouds
8:35 PM 53.6 °F - 17.6 °F 24% 30.14 in 10.0 mi NW 6.9 mph - N/A   Mostly Cloudy
8:55 PM 50.0 °F - 15.8 °F 26% 30.14 in 10.0 mi North 11.5 mph - N/A   Overcast
9:15 PM 51.8 °F - 19.4 °F 28% 30.14 in 10.0 mi North 8.1 mph - N/A   Mostly Cloudy
9:35 PM 51.8 °F - 19.4 °F 28% 30.15 in 10.0 mi North 9.2 mph - N/A   Mostly Cloudy
9:55 PM 50.0 °F - 19.4 °F 30% 30.15 in 10.0 mi North 9.2 mph - N/A   Mostly Cloudy
10:15 PM 48.2 °F - 21.2 °F 34% 30.15 in 10.0 mi North 6.9 mph - N/A   Partly Cloudy
10:35 PM 46.4 °F 45.2 °F 21.2 °F 37% 30.15 in 10.0 mi North 3.5 mph - N/A   Clear
10:55 PM 44.6 °F 43.1 °F 19.4 °F 37% 30.16 in 10.0 mi NNW 3.5 mph - N/A   Clear
11:15 PM 44.6 °F 40.2 °F 21.2 °F 39% 30.16 in 10.0 mi NNE 8.1 mph - N/A   Clear
11:35 PM 44.6 °F 41.4 °F 23.0 °F 43% 30.16 in 10.0 mi ENE 5.8 mph - N/A   Scattered Clouds
11:55 PM 46.4 °F 42.4 °F 19.4 °F 34% 30.16 in 10.0 mi East 8.1 mph - N/A   Mostly Cloudy